KE4EST Weather Reports


time (UTC)temp
F
wind
direction
speed
knots
gust
knots
rain 1hr
in
rain 24hr
in
rain mn
in
humidity
%
barometer
mb
20260906102205 68 82 0.0 0.0 0.00 0.00 0.00 99 1014.9
20260906101700 68 81 0.0 0.0 0.00 0.00 0.00 99 1014.9
20260906101155 68 82 0.0 0.0 0.00 0.00 0.00 99 1014.8
20260906100650 68 82 0.0 0.0 0.00 0.00 0.00 99 1014.8
20260906100145 68 82 0.0 0.0 0.00 0.00 0.00 99 1014.9
20260906095640 68 82 0.0 0.0 0.00 0.00 0.00 99 1015.0
20260906095135 68 81 0.0 0.0 0.00 0.00 0.00 99 1014.8
20260906094634 68 81 0.0 0.0 0.00 0.00 0.00 99 1014.9
20260906094130 68 81 0.0 0.0 0.00 0.00 0.00 99 1015.1
20260906093626 68 81 0.0 0.0 0.00 0.00 0.00 99 1014.9
20260906093120 68 81 0.0 0.0 0.00 0.00 0.00 99 1014.8
20260906092615 68 88 0.0 0.0 0.00 0.00 0.00 99 1014.9
20260906092110 68 89 0.0 0.0 0.00 0.00 0.00 99 1014.8
20260906091606 68 88 0.0 0.0 0.00 0.00 0.00 99 1014.9
20260906091103 68 89 0.0 0.0 0.00 0.00 0.00 99 1015.0
20260906090602 68 90 0.0 0.0 0.00 0.00 0.00 99 1015.1
20260906090057 68 90 0.0 0.0 0.00 0.00 0.00 99 1015.0
20260906085556 68 90 0.0 0.0 0.00 0.00 0.00 99 1015.2
20260906085051 68 90 0.0 0.0 0.00 0.00 0.00 99 1015.1
20260906084545 68 78 0.0 0.0 0.00 0.00 0.00 99 1015.0
20260906084044 68 74 0.0 0.0 0.00 0.00 0.00 99 1014.9
20260906083539 68 82 0.0 0.0 0.00 0.00 0.00 99 1014.8
20260906083034 68 85 0.0 0.0 0.00 0.00 0.00 99 1014.8
20260906082529 68 88 0.0 0.0 0.00 0.00 0.00 99 1014.8
20260906082025 68 83 0.0 0.0 0.00 0.00 0.00 99 1014.7
20260906081520 68 79 0.0 0.0 0.00 0.00 0.00 99 1014.7
20260906081016 68 79 0.0 0.0 0.00 0.00 0.00 99 1014.6
20260906080512 68 86 0.0 0.0 0.00 0.00 0.00 99 1014.7
20260906080008 68 87 0.0 0.0 0.00 0.00 0.00 99 1014.7
20260906075502 68 89 0.0 0.0 0.00 0.00 0.00 99 1014.9
20260906074956 68 89 0.0 0.0 0.00 0.00 0.00 99 1014.8
20260906074451 68 78 0.0 0.0 0.00 0.00 0.00 99 1014.8
20260906073949 68 79 0.0 0.0 0.00 0.00 0.00 99 1014.7
20260906073445 68 86 0.0 0.0 0.00 0.00 0.00 99 1014.6
20260906072941 68 86 0.0 0.0 0.00 0.00 0.00 99 1014.9
20260906072436 68 88 0.0 0.0 0.00 0.00 0.00 99 1014.8
20260906071932 68 92 0.0 0.0 0.00 0.00 0.00 99 1014.5
20260906071428 68 92 0.0 0.0 0.00 0.00 0.00 99 1014.7
20260906070924 68 92 0.0 0.0 0.00 0.00 0.00 99 1014.7
20260906070419 68 92 0.0 0.0 0.00 0.00 0.00 99 1014.6
20260906065915 68 85 0.0 0.0 0.00 0.00 0.00 99 1014.8
20260906065409 68 85 0.0 0.0 0.00 0.00 0.00 99 1015.0
20260906064904 68 85 0.0 0.0 0.00 0.00 0.00 99 1015.1
20260906064400 68 85 0.0 0.0 0.00 0.00 0.00 99 1015.0
20260906063855 68 85 0.0 0.0 0.00 0.00 0.00 99 1015.1
20260906063350 68 85 0.0 0.0 0.00 0.00 0.00 99 1015.1
20260906062845 68 85 0.0 0.0 0.00 0.00 0.00 99 1015.0
20260906062344 68 85 0.0 0.0 0.00 0.00 0.00 99 1015.1
20260906061840 68 85 0.0 0.0 0.00 0.00 0.00 99 1015.2
20260906061336 68 85 0.0 0.0 0.00 0.00 0.00 99 1015.1
20260906060831 68 85 0.0 0.0 0.00 0.00 0.00 99 1014.7
20260906060329 68 87 0.0 0.0 0.00 0.00 0.00 99 1014.9
20260906055824 68 87 0.0 0.0 0.00 0.00 0.00 99 1014.9
20260906055319 68 87 0.0 0.0 0.00 0.00 0.00 99 1015.1
20260906054814 68 87 0.0 0.0 0.00 0.00 0.00 99 1015.1
20260906054309 68 85 0.0 0.0 0.00 0.00 0.00 99 1015.1
20260906053806 68 87 0.0 0.0 0.00 0.00 0.00 99 1015.4
20260906053301 68 87 0.0 0.0 0.00 0.00 0.00 99 1015.2
20260906052756 68 87 0.0 0.0 0.00 0.00 0.00 99 1015.4
20260906052252 68 86 0.0 0.0 0.00 0.00 0.00 99 1015.4
20260906051749 68 88 0.0 0.0 0.00 0.00 0.00 99 1015.4
20260906051248 68 89 0.0 0.0 0.00 0.00 0.00 99 1015.8
20260906050744 68 89 0.0 0.0 0.00 0.00 0.00 99 1015.5
20260906050239 68 89 0.0 0.0 0.00 0.00 0.00 99 1015.6
20260906045738 68 91 0.0 0.0 0.00 0.00 0.00 99 1015.6
20260906045233 68 91 0.0 0.0 0.00 0.00 0.00 99 1015.6
20260906044729 68 92 0.0 0.0 0.00 0.00 0.00 99 1015.6
20260906044224 69 83 0.0 0.0 0.00 0.00 0.00 99 1015.6
20260906043720 69 83 0.0 0.0 0.00 0.00 0.00 99 1015.7
20260906043216 69 83 0.0 0.0 0.00 0.00 0.00 99 1015.8
20260906042715 69 83 0.0 0.0 0.00 0.00 0.00 99 1015.8
20260906042214 69 79 0.0 0.0 0.00 0.00 0.00 99 1015.8
20260906041710 69 87 0.0 0.0 0.00 0.00 0.00 99 1016.0
20260906041205 69 87 0.0 0.0 0.00 0.00 0.00 99 1016.1
20260906040701 69 80 0.0 0.0 0.00 0.00 0.00 99 1016.1
20260906040156 69 81 0.0 0.0 0.00 0.00 0.00 99 1015.4
20260906035651 69 80 0.0 0.0 0.00 0.00 0.00 99 1015.7
20260906035147 69 77 0.0 0.0 0.00 0.00 0.00 99 1015.8
20260906034641 69 81 0.0 0.0 0.00 0.00 0.00 99 1015.7
20260906034136 69 73 0.0 0.0 0.00 0.00 0.00 99 1015.6
20260906033632 69 78 0.0 0.0 0.00 0.00 0.00 99 1015.5
20260906033126 69 84 0.0 0.0 0.00 0.00 0.00 99 1015.5
20260906032623 70 83 0.0 0.0 0.00 0.00 0.00 99 1015.7
20260906032123 70 84 0.0 0.0 0.00 0.00 0.00 99 1015.8
20260906031618 70 83 0.0 0.0 0.00 0.00 0.00 99 1015.7
20260906031114 70 84 0.0 0.0 0.00 0.00 0.00 99 1016.0
20260906030612 70 84 0.0 0.0 0.00 0.00 0.00 99 1016.0
20260906030108 70 91 0.0 0.0 0.00 0.00 0.00 99 1016.0
20260906025607 70 93 0.0 0.0 0.00 0.00 0.00 99 1016.0
20260906025106 70 91 0.0 0.0 0.00 0.00 0.00 99 1015.8
20260906024601 70 83 0.0 0.0 0.00 0.00 0.00 99 1015.7
20260906024055 70 85 0.0 0.0 0.00 0.00 0.00 99 1015.7
20260906023552 70 85 0.0 0.0 0.00 0.00 0.00 99 1015.8
20260906023051 70 85 0.0 0.0 0.00 0.00 0.00 99 1015.7
20260906022547 70 86 0.0 0.0 0.00 0.00 0.00 99 1015.5
20260906022042 70 85 0.0 0.0 0.00 0.00 0.00 99 1015.3
20260906021538 70 85 0.0 0.0 0.00 0.00 0.00 99 1015.3
20260906021036 71 85 0.0 0.0 0.00 0.00 0.00 99 1015.6
20260906020531 70 85 0.0 0.0 0.00 0.00 0.00 99 1015.3
20260906020031 70 85 0.0 0.0 0.00 0.00 0.00 99 1015.2
20260906015529 70 85 0.0 0.0 0.00 0.00 0.00 99 1015.2
20260906015024 71 85 0.0 0.0 0.00 0.00 0.00 99 1015.1
20260906014519 71 85 0.0 0.0 0.00 0.00 0.00 99 1014.8
20260906014015 71 85 0.0 0.0 0.00 0.00 0.00 99 1015.1
20260906013509 71 85 0.0 0.0 0.00 0.00 0.00 99 1015.2
20260906013000 71 86 0.0 0.0 0.00 0.00 0.00 99 1014.9
20260906012455 71 86 0.0 0.0 0.00 0.00 0.00 99 1014.7
20260906011954 71 84 0.0 0.0 0.00 0.00 0.00 99 1014.8
20260906011450 71 84 0.0 0.0 0.00 0.00 0.00 99 1014.9
20260906010944 71 83 0.0 0.0 0.00 0.00 0.00 99 1014.8
20260906010439 71 83 0.0 0.0 0.00 0.00 0.00 99 1014.7
20260906005936 72 83 0.0 0.0 0.00 0.00 0.00 99 1014.7
20260906005430 72 78 0.0 0.0 0.00 0.00 0.00 99 1014.9
20260906004928 72 76 0.0 0.0 0.00 0.00 0.00 99 1014.9
20260906004423 72 84 0.0 0.0 0.00 0.00 0.00 99 1014.7
20260906003919 72 84 0.0 0.0 0.00 0.00 0.00 99 1014.7
20260906003414 72 84 0.0 0.0 0.00 0.00 0.00 99 1014.5
20260906002909 73 84 0.0 0.0 0.00 0.00 0.00 99 1014.9
20260906002409 73 84 0.0 0.0 0.00 0.00 0.00 99 1014.9
20260906001904 73 84 0.0 0.0 0.00 0.00 0.00 98 1014.8
20260906001400 73 84 0.0 0.0 0.00 0.00 0.00 98 1014.6
20260906000859 73 84 0.0 0.0 0.00 0.00 0.00 98 1014.5
20260906000356 73 81 0.0 0.0 0.00 0.00 0.00 98 1014.7
20260905235849 74 81 0.0 0.0 0.00 0.00 0.00 97 1014.7
20260905235343 74 81 0.0 0.0 0.00 0.00 0.00 97 1014.8
20260905234839 74 80 0.0 0.0 0.00 0.00 0.00 97 1014.6
20260905234334 74 80 0.0 0.0 0.00 0.00 0.00 97 1014.4
20260905233829 74 81 0.0 0.0 0.00 0.00 0.00 96 1014.4
20260905233324 74 80 0.0 0.0 0.00 0.00 0.00 96 1014.5
20260905232823 74 80 0.0 0.0 0.00 0.00 0.00 95 1014.7
20260905232320 75 80 0.0 0.0 0.00 0.00 0.00 95 1014.7
20260905231815 75 80 0.0 0.0 0.00 0.00 0.00 95 1014.5
20260905231310 75 81 0.0 0.0 0.00 0.00 0.00 94 1014.5
20260905230806 75 80 0.0 0.0 0.00 0.00 0.00 94 1014.6
20260905230304 75 80 0.0 0.0 0.00 0.00 0.00 94 1014.5
20260905225804 75 80 0.0 0.0 0.00 0.00 0.00 93 1014.5
20260905225259 75 80 0.0 0.0 0.00 0.00 0.00 93 1014.4
20260905224758 75 76 0.0 0.0 0.00 0.00 0.00 93 1014.5
20260905224254 76 71 0.0 0.0 0.00 0.00 0.00 93 1014.4
20260905223749 75 78 0.0 0.0 0.00 0.00 0.00 93 1014.3
20260905223246 76 83 0.0 0.0 0.00 0.00 0.00 93 1014.5
20260905222741 76 90 0.0 0.0 0.00 0.00 0.00 91 1014.9
20260905222240 76 90 0.0 0.0 0.00 0.00 0.00 91 1014.9
20260905221736 76 90 0.0 0.0 0.00 0.00 0.00 91 1014.7
20260905221233 76 90 0.0 0.0 0.00 0.00 0.00 91 1014.6
20260905220729 76 90 0.0 0.0 0.00 0.00 0.00 91 1014.9
20260905220225 76 77 0.0 0.0 0.00 0.00 0.00 91 1014.8
20260905215724 77 77 0.0 0.0 0.00 0.00 0.00 89 1014.6
20260905215220 77 77 0.0 0.0 0.00 0.00 0.00 90 1014.5
20260905214716 77 77 0.0 0.0 0.00 0.00 0.00 89 1014.2
20260905214211 77 77 0.0 0.0 0.00 0.00 0.00 89 1014.8
20260905213706 77 77 0.0 0.0 0.00 0.00 0.00 88 1014.8
20260905213202 77 77 0.0 0.0 0.00 0.00 0.00 88 1014.8
20260905212657 77 80 0.0 0.0 0.00 0.00 0.00 90 1014.9
20260905212156 76 80 0.0 0.0 0.00 0.00 0.00 90 1015.2
20260905211651 76 83 0.0 0.0 0.00 0.00 0.00 91 1015.3
20260905211146 76 78 0.0 0.0 0.00 0.00 0.00 93 1015.1
20260905210643 75 76 0.0 0.0 0.00 0.00 0.00 91 1015.2
20260905210143 75 75 0.0 0.0 0.00 0.00 0.00 91 1014.9
20260905205641 75 75 0.0 0.0 0.00 0.00 0.00 91 1015.1
20260905205136 75 73 0.0 0.0 0.00 0.00 0.00 90 1015.1
20260905204630 75 75 0.9 0.9 0.00 0.00 0.00 89 1015.0
20260905204125 75 66 0.9 0.9 0.00 0.00 0.00 88 1015.0
20260905203620 75 71 0.0 0.0 0.00 0.00 0.00 88 1014.7
20260905203115 76 78 0.9 0.9 0.00 0.00 0.00 87 1014.9
20260905202610 76 72 0.9 0.9 0.00 0.00 0.00 85 1014.8
20260905202105 77 79 0.0 0.0 0.00 0.00 0.00 83 1014.9
20260905201601 77 88 0.0 0.0 0.00 0.00 0.00 80 1014.9
20260905201100 78 85 0.0 0.0 0.00 0.00 0.00 80 1015.2
20260905200555 79 84 0.0 0.0 0.00 0.00 0.00 78 1015.5
20260905200050 81 43 1.7 2.6 0.00 0.00 0.00 75 1015.8
20260905195544 81 68 0.9 0.9 0.00 0.00 0.00 76 1015.6
20260905195040 81 53 0.9 1.7 0.00 0.00 0.00 77 1015.7
20260905194539 82 77 0.0 0.0 0.00 0.00 0.00 74 1015.8
20260905194039 84 74 0.9 0.9 0.00 0.00 0.00 73 1015.6
20260905193534 86 82 0.9 0.9 0.00 0.00 0.00 69 1015.2
20260905193029 86 105 0.0 0.0 0.00 0.00 0.00 66 1015.1
20260905192524 86 81 0.0 0.0 0.00 0.00 0.00 67 1015.4
20260905192021 86 72 0.9 0.9 0.00 0.00 0.00 66 1015.4
20260905191519 85 84 0.0 0.0 0.00 0.00 0.00 68 1015.4
20260905191018 85 83 0.9 0.9 0.00 0.00 0.00 68 1015.2
20260905190516 83 85 0.0 0.0 0.00 0.00 0.00 68 1015.4
20260905190016 84 55 1.7 1.7 0.00 0.00 0.00 68 1015.7
20260905185510 82 83 0.0 0.9 0.00 0.00 0.00 71 1015.6
20260905185009 80 73 0.9 0.9 0.00 0.00 0.00 71 1015.7
20260905184505 81 80 0.9 0.9 0.00 0.00 0.00 71 1015.7
20260905184003 81 85 0.9 0.9 0.00 0.00 0.00 73 1015.8
20260905183502 82 78 0.9 0.9 0.00 0.00 0.00 67 1015.6
20260905182957 82 88 0.0 0.0 0.00 0.00 0.00 71 1015.6
20260905182457 84 84 0.0 0.0 0.00 0.00 0.00 70 1016.2
20260905181952 85 90 0.0 0.0 0.00 0.00 0.00 68 1016.0
20260905181447 90 86 0.0 0.0 0.00 0.00 0.00 69 1016.1
20260905180946 92 83 0.0 0.0 0.00 0.00 0.00 67 1015.7
20260905180441 92 93 0.0 0.0 0.00 0.00 0.00 62 1015.7
20260905175936 91 86 0.0 0.0 0.00 0.00 0.00 65 1015.7
20260905175436 91 124 0.9 0.9 0.00 0.00 0.00 67 1015.8
20260905174931 91 83 0.0 0.0 0.00 0.00 0.00 69 1015.8
20260905174427 91 101 0.0 0.0 0.00 0.00 0.00 67 1015.8
20260905173922 91 69 0.9 0.9 0.00 0.00 0.00 68 1015.8
20260905173419 91 81 0.9 0.9 0.00 0.00 0.00 66 1015.8
20260905172919 91 97 0.0 0.0 0.00 0.00 0.00 70 1016.1
20260905172416 90 95 0.0 0.0 0.00 0.00 0.00 71 1016.1
20260905171912 89 13 0.9 1.7 0.00 0.00 0.00 69 1015.8
20260905171404 89 86 0.9 0.9 0.00 0.00 0.00 71 1016.2
20260905170859 89 62 1.7 1.7 0.00 0.00 0.00 70 1016.4
20260905170355 89 349 2.6 2.6 0.00 0.00 0.00 69 1016.3
20260905165854 89 140 1.7 1.7 0.00 0.00 0.00 70 1016.5
20260905165350 89 81 0.0 0.0 0.00 0.00 0.00 70 1016.5
20260905164850 88 117 0.9 0.9 0.00 0.00 0.00 72 1016.4
20260905164344 88 86 0.0 0.0 0.00 0.00 0.00 72 1016.5
20260905163840 88 67 0.9 0.9 0.00 0.00 0.00 74 1016.5
20260905163331 87 96 0.0 0.0 0.00 0.00 0.00 75 1016.6
20260905162826 87 92 0.0 0.0 0.00 0.00 0.00 77 1016.6
20260905162320 86 92 0.0 0.0 0.00 0.00 0.00 76 1017.0
20260905161815 86 97 0.0 0.0 0.00 0.00 0.00 76 1016.8
20260905161315 86 95 0.0 0.0 0.00 0.00 0.00 77 1016.8
20260905160813 86 95 0.0 0.0 0.00 0.00 0.00 78 1017.0
20260905160313 85 97 0.0 0.0 0.00 0.00 0.00 79 1016.9
20260905155808 84 102 0.0 0.0 0.00 0.00 0.00 81 1017.0
20260905155307 84 92 0.0 0.0 0.00 0.00 0.00 79 1017.2
20260905154800 83 85 0.0 0.0 0.00 0.00 0.00 81 1017.1
20260905154257 82 90 0.0 0.0 0.00 0.00 0.00 81 1017.1
20260905153752 83 101 0.0 0.0 0.00 0.00 0.00 81 1017.4
20260905153248 83 99 0.0 0.0 0.00 0.00 0.00 82 1017.3
20260905152742 82 89 0.0 0.0 0.00 0.00 0.00 83 1017.3
20260905152236 81 91 0.0 0.0 0.00 0.00 0.00 82 1017.1
20260905151736 82 99 0.0 0.0 0.00 0.00 0.00 84 1017.2
20260905151233 81 92 0.0 0.0 0.00 0.00 0.00 85 1017.1
20260905150732 81 87 0.0 0.0 0.00 0.00 0.00 85 1017.2
20260905150232 80 92 0.0 0.0 0.00 0.00 0.00 86 1017.3
20260905145729 80 91 0.0 0.0 0.00 0.00 0.00 87 1017.4
20260905145225 80 79 0.0 0.0 0.00 0.00 0.00 88 1017.4
20260905144723 79 92 0.0 0.0 0.00 0.00 0.00 89 1017.6
20260905144218 79 94 0.0 0.0 0.00 0.00 0.00 90 1017.3
20260905143717 78 86 0.0 0.0 0.00 0.00 0.00 88 1017.5
20260905143212 78 90 0.0 0.0 0.00 0.00 0.00 91 1017.4
20260905142710 77 90 0.0 0.0 0.00 0.00 0.00 91 1017.6
20260905142205 77 90 0.0 0.0 0.00 0.00 0.00 93 1017.7
20260905141701 76 90 0.0 0.0 0.00 0.00 0.00 93 1017.6
20260905141156 75 92 0.0 0.0 0.00 0.00 0.00 94 1017.7
20260905140651 75 90 0.0 0.0 0.00 0.00 0.00 96 1017.6
20260905140145 74 94 0.0 0.0 0.00 0.00 0.00 98 1017.7
20260905135640 74 94 0.0 0.0 0.00 0.00 0.00 99 1018.0
20260905135136 73 94 0.0 0.0 0.00 0.00 0.00 99 1017.7
20260905134630 73 94 0.0 0.0 0.00 0.00 0.00 99 1018.1
20260905134129 72 94 0.0 0.0 0.00 0.00 0.00 99 1018.1
20260905133624 72 88 0.0 0.0 0.00 0.00 0.00 99 1017.8
20260905133118 72 88 0.0 0.0 0.00 0.00 0.00 99 1018.0
20260905132618 72 88 0.0 0.0 0.00 0.00 0.00 99 1018.0
20260905132113 72 86 0.0 0.0 0.00 0.00 0.00 99 1018.3
20260905131608 71 86 0.0 0.0 0.00 0.00 0.00 99 1018.2
20260905131103 71 86 0.0 0.0 0.00 0.00 0.00 99 1018.3
20260905130602 71 86 0.0 0.0 0.00 0.00 0.00 99 1018.2
20260905130057 71 86 0.0 0.0 0.00 0.00 0.00 99 1017.8
20260905125557 70 86 0.0 0.0 0.00 0.00 0.00 99 1018.1
20260905125053 70 86 0.0 0.0 0.00 0.00 0.00 99 1018.1
20260905124549 70 86 0.0 0.0 0.00 0.00 0.00 99 1018.3
20260905124045 70 86 0.0 0.0 0.00 0.00 0.00 99 1018.1
20260905123540 69 84 0.0 0.0 0.00 0.00 0.00 99 1018.0
20260905123037 69 84 0.0 0.0 0.00 0.00 0.00 99 1018.1
20260905122536 69 84 0.0 0.0 0.00 0.00 0.00 99 1018.0
20260905122031 69 84 0.0 0.0 0.00 0.00 0.00 99 1018.0
20260905121526 68 84 0.0 0.0 0.00 0.00 0.00 99 1017.7
20260905121021 68 84 0.0 0.0 0.00 0.00 0.00 99 1017.7
20260905120515 68 84 0.0 0.0 0.00 0.00 0.00 99 1018.1
20260905120011 68 84 0.0 0.0 0.00 0.00 0.00 99 1017.7
20260905115509 68 83 0.0 0.0 0.00 0.00 0.00 99 1017.7
20260905115004 68 83 0.0 0.0 0.00 0.00 0.00 99 1017.8
20260905114458 68 83 0.0 0.0 0.00 0.00 0.00 99 1017.6
20260905113956 68 84 0.0 0.0 0.00 0.00 0.00 99 1017.5
20260905113452 68 84 0.0 0.0 0.00 0.00 0.00 99 1017.7
20260905112948 68 84 0.0 0.0 0.00 0.00 0.00 99 1017.2
20260905112443 68 84 0.0 0.0 0.00 0.00 0.00 99 1017.0
20260905111938 68 84 0.0 0.0 0.00 0.00 0.00 99 1017.2
20260905111438 67 84 0.0 0.0 0.00 0.00 0.00 99 1017.0
20260905110932 68 84 0.0 0.0 0.00 0.00 0.00 99 1016.8
20260905110426 68 83 0.0 0.0 0.00 0.00 0.00 99 1017.1
20260905105926 68 82 0.0 0.0 0.00 0.00 0.00 99 1016.8
20260905105426 68 82 0.0 0.0 0.00 0.00 0.00 99 1016.9
20260905104920 68 81 0.0 0.0 0.00 0.00 0.00 99 1016.9
20260905104416 68 81 0.0 0.0 0.00 0.00 0.00 99 1016.8
20260905103916 68 81 0.0 0.0 0.00 0.00 0.00 99 1016.8
20260905103411 68 80 0.0 0.0 0.00 0.00 0.00 99 1016.8
20260905102907 68 82 0.0 0.0 0.00 0.00 0.00 99 1016.8